Regional Weather Roundup
Issued by NWS

Home | Current Version | Previous Version | Graphics & Text | Print | Product List | Glossary On
Versions: 1 2 3 4 5 6 7 8 9 10 11 12 13 14 15 16 17 18 19 20 21 22 23 24 25 26 27 28 29 30 31 32 33 34 35 36 37 38 39 40 41 42 43 44 45 46 47 48 49 50
000
ASUS43 KLOT 301310
RWRIL

ILLINOIS REGIONAL WEATHER ROUNDUP
NATIONAL WEATHER SERVICE CHICAGO/ROMEOVILLE IL
700 AM CST FRI JAN 30 2015

NOTE: "FAIR" INDICATES FEW OR NO CLOUDS BELOW 12,000 FEET WITH NO
SIGNIFICANT WEATHER AND/OR OBSTRUCTIONS TO VISIBILITY.

* THESE STATIONS ARE NOT UNDER NWS QUALITY CONTROL. THEY ALSO MAY NOT
  REPORT WEATHER SUCH AS PRECIPITATION OR FOG.

ILZ001-002-007-009-015-016-024-301400-
NORTHWEST ILLINOIS

CITY           SKY/WX    TMP DP  RH WIND       PRES   REMARKS
MOLINE         CLEAR     19  10  68 N3        30.52S
STERLING*      CLEAR     18   9  68 N7        30.52R WCI   8
SAVANNA*       CLEAR     18  10  69 CALM      30.53R
$$

ILZ003-004-008-010-011-017-018-301400-
NORTH CENTRAL ILLINOIS

CITY           SKY/WX    TMP DP  RH WIND       PRES   REMARKS
ROCKFORD       CLEAR     17   8  67 N7        30.53R WCI   8
FREEPORT*      CLEAR     15   8  72 N5        30.53R WCI   8
ROCHELLE*      CLEAR     17  10  76 N7        30.51R WCI   7
DE KALB*       CLEAR     16  10  74 NW7       30.50R WCI   7
PERU*          FAIR      19  15  81 N7        30.52R WCI  10
$$

ILZ005-006-012>014-019>023-301400-
NORTHEAST ILLINOIS

CITY           SKY/WX    TMP DP  RH WIND       PRES   REMARKS
CHICAGO-OHARE  PTCLDY    20   8  60 N9        30.49R WCI   9
CHICAGO-MIDWAY PTCLDY    24   9  52 N12       30.49R WCI  13
AURORA         CLEAR     20  12  71 N10       30.50R WCI   9
LANSING*       PTCLDY    23   9  53 NW12      30.48R WCI  12
JOLIET*        CLEAR     23  11  60 N6        30.50R WCI  15
WAUKEGAN       CLEAR     17   8  67 VRB5      30.48R WCI  10
DUPAGE AIRPORT PTCLDY    19  10  68 N7        30.48R WCI  10
KANKAKEE*      CLEAR     24  13  63 N7        30.50R WCI  15
WHEELING       CLEAR     19   8  62 N6        30.51R WCI  11
MORRIS*        CLEAR     20  15  82 N6        30.49S WCI  12
ROMEOVILLE*    CLEAR     19  10  65 N6        30.49R WCI  11
NORTHERLY ISL    N/A     24  10  55 NW10        N/A  WCI  14
$$

LMZ740>746-301400-
SOUTHERN LAKE MICHIGAN

STATION/POSITION SKY/WX   TEMP    WIND        PRES    VSBY  WAVE
                          AIR SEA DIR/SP/G                  HT/PER
                          (F)     (DEG/KT/KT) (MB)    (MI)  (FT/S)
WAUKEGAN HARBOR            19     310/  7/ 12   N/A
HARRISON CRIB              24     310/ 19/ 23   N/A
BURNHAM HARBOR             24     340/ 12/ 18   N/A
CALUMET HARBOR             24     310/  9/ 17   N/A
MICHIGAN CITY              26     350/ 23/ 29   N/A
$$

ILZ025>027-034>036-040-047-049-050-058-095>099-301400-
WEST-CENTRAL ILLINOIS

CITY           SKY/WX    TMP DP  RH WIND       PRES   REMARKS
QUINCY         CLEAR     21  16  81 NW5       30.54R WCI  15
GALESBURG*     CLEAR     19  15  82 N8        30.52R WCI   9
MACOMB*        CLEAR     21  18  88 NW6       30.55S WCI  14
JACKSONVILLE*  CLEAR     25  19  77 NW7       30.53R WCI  17
PITTSFIELD*    PTCLDY    26  18  72 N6        30.55R WCI  19
$$

ILZ028>032-037-038-041>044-048-051>054-059>061-301400-
CENTRAL ILLINOIS

CITY           SKY/WX    TMP DP  RH WIND       PRES   REMARKS
PONTIAC        PTCLDY    23  18  83 N5        30.51R WCI  16
BLOOMINGTON    CLEAR     23  18  81 N10       30.49R WCI  12
DECATUR        CLEAR     26  19  74 NW10      30.49R WCI  16
PEORIA         CLEAR     24  15  68 N6        30.52R WCI  17
LACON*         PTCLDY    22  14  72 N6        30.52R WCI  14
LINCOLN*       CLEAR     26  19  77 NW5       30.54R WCI  20
SPRINGFIELD    CLEAR     24  17  74 NW8       30.52R WCI  15
TAYLORVILLE    CLEAR     27  21  80 NW10      30.52R WCI  17
$$

ILZ033-039-045-046-055>057-062-063-301400-
EAST-CENTRAL ILLINOIS

CITY           SKY/WX    TMP DP  RH WIND       PRES   REMARKS
CHAMPAIGN      CLEAR     24  19  81 NW10      30.47R WCI  14
DANVILLE*      CLEAR     24  19  80 N7        30.45R WCI  16
RANTOUL*       CLEAR     26  22  84 NW7       30.48R WCI  18
MATTOON        CLEAR     26  19  74 N15       30.47R WCI  14
PARIS*         PTCLDY    28  23  83 NW7       30.47R WCI  20
$$

ILZ079-100>102-301400-
SOUTHWEST ILLINOIS

CITY           SKY/WX    TMP DP  RH WIND       PRES   REMARKS
ALTON          PTCLDY    28  18  64 NW6       30.54R WCI  22
BELLEVILLE     CLOUDY    28  20  69 N10       30.53R WCI  19
CAHOKIA*       CLOUDY    30  21  69 N8        30.54R WCI  22
SPARTA*        CLOUDY    30  21  70 NW8       30.53R WCI  22
$$

ILZ064>066-069>071-074>076-080>082-084>086-088>090-092>094-301400-
SOUTH-CENTRAL ILLINOIS

CITY           SKY/WX    TMP DP  RH WIND       PRES   REMARKS
CARBONDALE     CLOUDY    32  21  64 NW9       30.51R WCI  24
CAIRO*         CLEAR     34  25  70 N6        30.49S WCI  28
EFFINGHAM*     CLEAR     29  19  64 NW9       30.51R WCI  21
MARION         CLOUDY   N/A N/A N/A NW12      30.51R
MT. VERNON     CLOUDY    30  18  59 N9G16     30.51R WCI  22
CENTRALIA*     CLOUDY    29  19  66 N12       30.51R WCI  20
SALEM*         MOCLDY    31  21  66 NW9       30.51R WCI  23
METROPOLIS*    CLOUDY    34  25  69 NW8       30.49R WCI  27
$$

ILZ067-068-072-073-078-083-087-091-301400-
SOUTHEAST ILLINOIS

CITY           SKY/WX    TMP DP  RH WIND       PRES   REMARKS
LAWRENCEVILLE  CLEAR     30  23  75 NW12      30.47R WCI  20
FLORA*         CLEAR     29  21  70 NW9       30.50R WCI  21
FAIRFIELD*     PTCLDY    30  21  68 CALM      30.50R
HARRISBURG*    CLOUDY    33  22  65 NW7       30.51R WCI  27
ROBINSON*      CLEAR     29  23  78 NW10      30.47R WCI  20
CARMI*         PTCLDY    33  26  76 N12       30.49R WCI  24
$$

ABBREVIATIONS USED IN REMARKS
   TC - TEMPERATURE IN CELSIUS
  WCI - WIND CHILL INDEX
   HX - HEAT INDEX
  VSB - VISIBILITY
$$



USA.gov is the U.S. government's official web portal to all federal, state and local government web resources and services.